Find Starlink 30812

NORAD ID: 58168 Int'l Des: 2023-166 Owner: SPXS Country: US Constellation: starlink operational
LEOCIRCULAR

Current View

Loading 3D Globe...

About Starlink 30812

Starlink 30812 (NORAD 58168) is a starlink constellation satellite (v2 mini) launched Oct 29, 2023 by SPXS of US. It operates in LEO, CIRCULAR orbit with a mass of 730.00 kg.

About Starlink 30812

Description loading...

Upcoming Passes

Passes for default location (London). Set your location on the main map for personalized predictions.

Altitude History

Loading altitude history...

Two-Line Element Set

1 58168U 23166U 26169.54133640 .00010518 00000-0 36601-3 0 9990
2 58168 53.1601 110.9254 0000941 74.2777 285.8328 15.30265696148479
Epoch: Jun 18, 2026 • Age: 13 hours

Current Status

Altitude 478.7 km
Velocity 7.63 km/s
Sub-Earth Point 43.29°N, 141.09°W
Launch Date Oct 29, 2023
Age 2.6 years
Type internet

Technical Details

Classification Payload
Mass 730.00 kg
Dry Mass 700.00 kg
Total Mass 730.00 kg
Length 0.30 m
Diameter 4.10 m
Span 29.00 m
Shape Box + pan
Manufacturer SPXS
Bus Type Starlink V2M
Phase Status In Orbit
Owner/State SPXS/US

Most Searched